SCP
0 0 0 0 0 0 0 0 0 0 0 0 0 0 0 0 0 0 0 0 0 0 0 0 0 0 0 0 0 0 0 0 0 0 0 0 0 0 0 0 0 0 -0
0 0 0 0 0 0 0 0 0 0 0 0 0 0 0 0 0 0 0 0 0 0 0 0 0 0 0 0 0 0 0 0 0 0 0 0 0 0 0 0 0 0 0
0 0 0 0 0 0 0 0 0 0 0 0 0 0 0 0 0 0 0 0 0 0 0 0 0 0 0 0 0 0 0 0 0 0 0 0 0 0 0 0 0 0 0
0 0 0 0 0 0 0 0 0 0 0 0 0 0 0 0 0 0 0 0 0 0 0 0 0 0 0 -0 0 0 0 0 0 0 0 0 0 0 0 0 0 0 -0
0 0 0 0 0 0 0 0 0 0 0 0 0 0 0 0 0 0 0 0 0 0 0 0 0 0 0 0 -0 -0 0 0 0 0 -0 -0 -0 0 0 0 0 0 -0
0 0 0 0 0 0 0 0 0 0 0 0 0 0 0 0 0 0 0 0 0 0 0 0 0 0 0 0 0 0 0 0 -0 -0 -0 -0 -0 -0 0 0 -0 -0 -0
0 0 0 0 0 0 0 0 0 0 0 0 0 0 0 0 0 0 0 0 0 0 0 0 0 0 0 0 0 0 0 0 -0 -0 -0 -0 -0 -0 -0 0 0 -0 -0
0 0 0 0 0 0 0 0 0 0 0 0 0 0 0 0 0 0 0 0 0 0 0 0 0 0 0 0 0 0 0 0 0 -0 -0 -0 -0 -0 0 0 0 0 -0
0 0 0 0 0 0 0 0 0 0 0 0 0 0 0 0 0 0 0 0 0 0 0 0 0 0 0 0 0 0 0 0 0 0 0 0 0 0 0 0 0 0 0
0 0 0 0 0 0 0 0 0 0 0 0 0 0 0 0 0 0 0 0 0 0 0 0 0 0 0 0 0 0 0 0 0 0 0 0 0 0 0 0 0 0 0
0 0 0 0 0 0 0 0 0 0 0 0 0 0 0 0 0 0 0 0 0 0 0 0 0 0 0 0 0 0 0 0 0 0 0 0 0 0 0 0 0 0 0
0 0 0 0 0 0 0 0 0 0 0 0 0 0 0 0 0 0 0 0 0 0 0 0 0 0 0 0 0 0 0 0 0 0 0 0 0 0 0 0 0 0 0
0 0 0 0 0 0 0 0 0 0 0 0 0 0 0 0 0 0 0 0 0 0 0 0 0 0 0 0 0 0 0 0 0 0 0 0 0 0 0 0 0 0 0
0 0 0 0 0 0 0 0 0 0 0 0 0 0 0 0 0 0 0 0 0 0 0 0 0 0 0 0 0 0 0 0 0 0 0 0 0 0 0 0 0 0 0
0 0 0 0 0 0 0 0 0 0 0 0 0 0 0 0 0 0 0 0 0 0 0 0 0 0 0 0 0 0 0 0 0 0 0 0 0 0 0 0 0 0 0
0 0 0 0 0 0 0 0 0 0 0 0 0 0 0 0 0 0 0 0 0 0 0 0 0 0 0 0 0 0 0 0 0 0 0 0 0 0 0 0 0 0 0
0 0 0 0 0 0 0 0 0 0 0 0 0 0 0 0 0 0 0 0 0 0 0 0 0 0 0 0 0 0 0 0 0 0 0 0 0 0 0 0 0 0 0
0 0 0 0 0 0 0 0 0 0 0 0 0 0 0 0 0 0 0 0 0 0 0 0 0 0 0 0 0 0 0 0 0 0 0 0 0 0 0 0 0 0 0
0 0 0 0 0 0 0 0 0 0 0 0 0 0 0 0 0 0 0 0 0 0 0 0 0 0 0 0 0 0 0 0 0 0 0 0 0 0 0 0 0 0 0
0 0 0 0 0 0 0 0 0 0 0 0 0 0 0 0 0 0 0 0 0 0 0 0 0 0 0 0 0 0 0 0 0 0 0 0 0 0 0 0 0 0 0
0 0 0 0 0 0 0 0 0 0 0 0 0 0 0 0 0 0 0 0 0 0 0 0 0 0 0 0 0 0 0 0 0 0 0 0 0 0 0 0 0 0 0
0 0 0 0 0 0 0 0 0 0 0 0 0 0 0 0 0 0 0 0 0 0 0 0 0 0 0 0 0 0 0 0 0 0 0 0 0 0 0 0 0 0 0
0 0 0 0 0 0 0 0 0 0 0 0 0 0 0 0 0 0 0 0 0 0 0 0 0 0 0 0 0 0 0 0 0 0 0 0 0 0 0 0 0 0 0
0 0 0 0 0 0 0 0 0 0 0 0 0 0 0 0 0 0 0 0 0 0 0 0 0 0 0 0 0 0 0 0 0 0 0 0 0 0 0 0 0 0 0
0 0 0 0 0 0 0 0 0 0 0 0 0 0 0 0 0 0 0 0 0 0 0 0 0 0 0 0 0 0 0 0 0 0 0 0 0 0 0 0 0 0 0
0 0 0 0 0 0 0 0 0 0 0 0 0 0 0 0 0 0 0 0 0 0 0 0 0 0 0 0 0 0 0 0 0 0 0 0 0 0 0 0 0 0 0
Wind_Speed_500mb
76 77 73 69 64 58 52 46 41 35 30 24 20 19 17 14 12 11 10 9 7 6 7 8 10 12 11 13 14 13 12 15 16 20 28 31 32 27 19 20 18 14 29
81 82 80 73 67 62 55 48 44 37 31 23 22 21 18 17 16 15 13 12 10 9 9 9 10 13 12 15 17 17 17 19 20 24 27 31 35 35 32 22 21 16 26
81 80 81 77 71 61 49 48 46 39 31 27 25 23 21 21 19 17 14 13 11 10 11 10 8 10 13 17 18 17 18 20 21 24 27 30 32 31 24 23 23 17 14
81 78 77 74 69 61 50 54 46 39 31 28 27 24 23 22 21 18 15 14 12 11 11 11 10 10 13 16 17 16 19 18 20 22 24 27 30 32 33 33 29 24 13
81 79 79 72 66 57 51 54 47 37 32 31 30 29 27 25 22 19 16 14 14 12 12 11 9 12 14 16 18 18 21 22 23 26 30 35 40 44 49 47 42 33 25
85 81 78 77 69 58 54 52 48 40 37 35 32 29 29 29 26 21 19 17 15 15 13 11 10 13 14 16 20 22 24 23 25 30 34 39 41 40 37 43 47 49 38
89 83 83 83 76 62 59 54 47 42 41 39 36 32 33 31 27 25 21 19 18 18 13 9 8 9 12 12 14 18 20 21 24 27 31 37 40 40 36 34 36 37 25
96 93 92 84 64 64 57 53 47 46 48 42 39 37 35 32 32 30 24 20 16 11 9 7 6 7 8 10 11 15 15 15 16 20 26 31 30 33 33 35 36 36 27
99 96 88 73 72 66 60 57 50 53 52 45 42 40 35 33 34 29 25 24 19 11 6 4 2 4 6 8 7 11 12 12 10 13 20 25 24 25 26 30 33 38 36
101 89 76 75 71 67 63 55 52 55 49 48 46 42 33 30 30 31 28 25 21 12 8 5 2 4 7 9 7 10 10 11 13 18 20 22 23 22 19 27 34 38 43
82 77 74 72 70 64 58 54 56 57 55 50 44 40 33 25 30 32 29 26 19 13 11 7 5 8 8 7 8 10 10 11 13 17 19 19 21 20 20 20 27 30 33
75 76 62 64 69 65 60 58 60 61 57 52 47 42 36 31 30 37 33 31 24 17 15 11 9 9 6 4 5 9 10 11 14 15 17 20 23 26 27 21 19 21 24
62 50 57 59 62 63 64 65 66 59 55 55 50 44 41 38 34 38 41 36 28 23 19 15 12 8 6 2 3 8 13 16 18 17 19 21 22 23 24 17 10 9 14
52 53 59 59 62 60 61 63 64 60 58 54 51 45 41 41 44 40 38 39 36 28 22 18 14 13 9 5 6 10 15 18 20 20 20 18 15 18 24 24 14 11 13
57 61 61 60 60 60 61 63 60 50 49 49 47 41 44 47 42 35 31 28 28 27 22 19 16 14 11 8 10 14 16 18 20 20 21 16 13 15 21 23 17 13 16
63 60 61 62 62 64 63 62 55 44 41 40 34 36 39 29 33 35 33 32 29 26 23 22 21 17 13 14 16 17 17 19 21 21 19 14 11 14 19 22 21 19 21
58 61 65 65 69 70 67 65 70 60 40 38 38 36 38 40 37 33 33 28 22 24 25 24 22 19 18 18 16 15 18 22 24 21 15 12 10 12 15 20 25 25 27
55 60 65 67 71 70 70 71 69 65 60 51 37 35 36 36 36 35 33 31 29 30 31 28 25 21 21 19 19 20 21 21 15 13 10 10 10 12 14 18 23 28 28
61 65 64 68 72 72 70 66 66 64 57 52 49 45 40 40 39 37 38 36 31 33 33 30 27 24 23 22 23 24 21 18 16 12 10 10 12 11 13 16 20 25 29
62 61 61 66 71 71 71 67 65 62 58 55 53 53 58 59 57 53 47 40 39 36 34 31 27 25 24 25 26 25 20 18 16 16 16 15 12 13 14 17 21 25 30
73 68 65 65 68 71 70 69 64 64 62 59 55 54 56 55 50 48 43 42 38 35 35 31 26 26 26 26 26 24 20 21 21 21 21 19 16 17 17 17 23 25 28
75 69 70 71 71 71 69 68 66 65 64 60 56 55 55 51 47 43 44 43 37 29 27 27 26 26 26 25 21 20 21 23 23 22 21 19 21 21 20 20 23 25 28
79 77 77 76 72 72 73 73 68 67 67 61 58 54 55 55 49 44 42 43 39 29 21 19 20 23 26 26 24 23 24 26 25 23 21 21 24 26 23 21 21 25 26
82 84 84 85 83 82 83 81 69 64 64 62 57 50 51 48 44 41 39 39 36 29 25 22 22 24 25 28 28 27 23 22 23 23 21 20 21 27 27 24 20 20 22
77 83 86 87 90 87 86 82 71 66 65 62 55 50 47 45 43 42 37 34 34 32 30 28 28 28 28 29 28 26 24 22 21 21 21 22 25 25 27 25 21 20 25
87 85 84 88 93 89 90 80 75 66 66 62 56 50 48 46 43 42 39 36 35 33 34 33 32 31 26 26 27 25 24 23 24 24 25 27 28 28 27 26 25 25 27
Wind_Direction_500mb
203 203 203 201 202 207 207 209 212 213 209 204 203 210 203 202 198 206 195 178 172 138 101 82 64 61 53 48 33 20 8 358 357 352 355 359 359 6 360 349 351 349 4
204 202 201 203 201 204 205 211 212 210 210 206 208 206 199 196 194 192 182 167 159 140 115 88 70 64 57 53 48 36 23 17 9 5 3 8 12 13 8 359 349 346 358
204 201 198 198 198 200 201 210 210 208 205 206 204 202 196 192 187 183 176 161 159 140 117 93 73 59 44 44 45 40 32 23 15 12 13 10 11 13 24 14 0 344 349
200 200 200 198 200 198 203 213 210 209 201 201 201 198 193 187 180 177 172 162 158 141 113 95 82 58 40 36 33 32 35 22 15 13 14 14 14 16 12 11 20 4 352
200 200 199 199 198 193 207 211 208 204 198 199 200 190 188 185 180 176 173 169 156 143 114 94 84 58 34 34 29 28 22 15 14 14 16 13 12 12 13 8 12 13 6
199 199 198 199 198 200 200 207 205 200 201 203 200 194 191 186 179 178 177 173 155 132 114 95 62 55 36 31 16 11 11 12 12 13 10 12 6 11 11 6 2 5 8
200 200 199 198 196 192 197 202 204 207 205 200 195 192 189 185 181 182 180 169 159 141 125 102 63 43 40 18 11 10 6 3 5 5 1 3 358 358 359 5 7 5 3
201 202 200 196 198 198 190 202 206 209 206 195 192 190 187 182 183 186 189 177 176 148 118 99 71 36 22 14 4 8 3 7 12 346 346 354 356 349 355 358 357 6 1
199 200 197 199 202 195 199 202 202 204 195 193 191 185 182 183 188 194 194 186 187 174 149 134 74 41 15 6 350 357 353 343 345 327 338 347 358 355 350 346 357 2 10
201 200 205 209 201 201 202 199 200 200 193 194 191 188 184 188 188 190 193 195 196 192 193 190 250 337 358 345 331 345 338 332 332 334 337 345 359 2 356 352 0 8 10
201 204 206 211 207 205 202 199 198 190 192 195 199 192 192 194 196 197 201 203 210 211 213 237 288 318 334 327 333 350 351 345 333 336 335 347 358 7 8 6 1 6 11
205 203 203 207 209 207 200 193 191 192 193 195 196 195 197 204 204 204 206 209 223 218 229 247 268 285 291 305 -0 22 14 352 343 340 343 353 4 358 11 7 8 1 14
197 197 199 197 199 197 192 192 190 193 198 197 201 203 207 206 200 200 208 218 227 223 229 243 253 252 248 308 324 4 350 350 348 347 357 353 3 345 346 5 6 4 5
200 194 193 193 190 190 192 196 197 197 201 208 211 214 213 214 211 211 211 214 217 218 225 225 232 238 244 256 294 330 325 334 342 340 350 345 332 327 349 9 4 343 332
195 192 193 195 193 191 198 202 205 212 217 218 223 227 222 216 214 211 214 209 203 206 213 220 226 233 245 270 285 294 309 326 331 333 339 341 324 339 355 6 4 352 348
197 196 194 196 198 201 201 204 215 224 224 229 242 241 227 218 212 208 200 194 201 215 222 224 229 238 246 255 266 283 301 314 320 325 329 332 325 344 357 357 5 5 0
210 202 201 203 202 205 207 210 208 203 220 231 232 223 210 208 207 212 206 209 218 227 226 229 233 241 247 257 275 288 293 303 313 315 318 324 313 332 352 356 356 0 8
214 212 210 206 208 210 211 210 210 209 203 203 207 213 206 209 218 217 218 223 228 229 228 233 236 243 250 261 269 277 288 295 293 294 301 321 306 324 337 353 353 352 358
217 213 213 211 212 213 211 212 214 213 215 213 205 203 214 220 225 226 230 235 240 230 230 233 238 245 252 256 261 272 282 272 278 285 293 306 301 298 319 334 342 348 354
221 221 217 213 215 213 212 214 214 214 218 218 214 212 209 211 215 221 231 234 229 227 234 236 241 246 252 255 262 271 272 270 273 279 285 286 279 281 307 322 330 342 349
217 218 217 215 217 217 215 215 216 218 219 221 222 221 226 228 226 231 234 233 231 232 237 240 247 252 256 261 266 268 269 270 270 270 274 277 274 263 280 308 322 328 337
221 221 218 218 218 218 218 219 219 220 222 223 224 223 226 228 228 230 231 228 232 232 236 242 248 252 259 262 255 258 266 265 268 268 264 263 267 266 277 297 310 316 325
222 224 221 220 222 223 221 220 220 221 222 223 225 227 226 224 225 223 221 221 221 223 229 240 252 264 265 263 265 272 272 271 267 261 261 268 268 261 268 283 297 308 316
218 223 223 222 222 222 220 218 220 223 223 223 226 226 223 219 215 212 215 218 223 227 238 251 262 273 269 263 263 263 260 258 260 260 264 264 259 254 264 279 290 303 314
227 222 225 227 226 225 222 219 222 220 220 223 225 221 218 214 213 216 217 220 224 234 243 253 263 269 264 258 256 257 255 248 251 257 262 258 257 255 261 268 275 288 303
227 228 229 226 224 224 223 218 222 220 220 220 221 219 218 215 219 224 225 227 230 238 241 250 263 268 257 253 253 254 253 255 257 262 264 263 256 253 255 264 278 288 296
Wind_Speed_850mb
76 77 73 69 64 58 52 46 41 35 30 24 20 19 17 14 12 11 10 9 7 6 7 8 10 12 11 13 14 13 12 15 16 20 28 31 32 27 19 20 18 14 29
81 82 80 73 67 62 55 48 44 37 31 23 22 21 18 17 16 15 13 12 10 9 9 9 10 13 12 15 17 17 17 19 20 24 27 31 35 35 32 22 21 16 26
81 80 81 77 71 61 49 48 46 39 31 27 25 23 21 21 19 17 14 13 11 10 11 10 8 10 13 17 18 17 18 20 21 24 27 30 32 31 24 23 23 17 14
81 78 77 74 69 61 50 54 46 39 31 28 27 24 23 22 21 18 15 14 12 11 11 11 10 10 13 16 17 16 19 18 20 22 24 27 30 32 33 33 29 24 13
81 79 79 72 66 57 51 54 47 37 32 31 30 29 27 25 22 19 16 14 14 12 12 11 9 12 14 16 18 18 21 22 23 26 30 35 40 44 49 47 42 33 25
85 81 78 77 69 58 54 52 48 40 37 35 32 29 29 29 26 21 19 17 15 15 13 11 10 13 14 16 20 22 24 23 25 30 34 39 41 40 37 43 47 49 38
89 83 83 83 76 62 59 54 47 42 41 39 36 32 33 31 27 25 21 19 18 18 13 9 8 9 12 12 14 18 20 21 24 27 31 37 40 40 36 34 36 37 25
96 93 92 84 64 64 57 53 47 46 48 42 39 37 35 32 32 30 24 20 16 11 9 7 6 7 8 10 11 15 15 15 16 20 26 31 30 33 33 35 36 36 27
99 96 88 73 72 66 60 57 50 53 52 45 42 40 35 33 34 29 25 24 19 11 6 4 2 4 6 8 7 11 12 12 10 13 20 25 24 25 26 30 33 38 36
101 89 76 75 71 67 63 55 52 55 49 48 46 42 33 30 30 31 28 25 21 12 8 5 2 4 7 9 7 10 10 11 13 18 20 22 23 22 19 27 34 38 43
82 77 74 72 70 64 58 54 56 57 55 50 44 40 33 25 30 32 29 26 19 13 11 7 5 8 8 7 8 10 10 11 13 17 19 19 21 20 20 20 27 30 33
75 76 62 64 69 65 60 58 60 61 57 52 47 42 36 31 30 37 33 31 24 17 15 11 9 9 6 4 5 9 10 11 14 15 17 20 23 26 27 21 19 21 24
62 50 57 59 62 63 64 65 66 59 55 55 50 44 41 38 34 38 41 36 28 23 19 15 12 8 6 2 3 8 13 16 18 17 19 21 22 23 24 17 10 9 14
52 53 59 59 62 60 61 63 64 60 58 54 51 45 41 41 44 40 38 39 36 28 22 18 14 13 9 5 6 10 15 18 20 20 20 18 15 18 24 24 14 11 13
57 61 61 60 60 60 61 63 60 50 49 49 47 41 44 47 42 35 31 28 28 27 22 19 16 14 11 8 10 14 16 18 20 20 21 16 13 15 21 23 17 13 16
63 60 61 62 62 64 63 62 55 44 41 40 34 36 39 29 33 35 33 32 29 26 23 22 21 17 13 14 16 17 17 19 21 21 19 14 11 14 19 22 21 19 21
58 61 65 65 69 70 67 65 70 60 40 38 38 36 38 40 37 33 33 28 22 24 25 24 22 19 18 18 16 15 18 22 24 21 15 12 10 12 15 20 25 25 27
55 60 65 67 71 70 70 71 69 65 60 51 37 35 36 36 36 35 33 31 29 30 31 28 25 21 21 19 19 20 21 21 15 13 10 10 10 12 14 18 23 28 28
61 65 64 68 72 72 70 66 66 64 57 52 49 45 40 40 39 37 38 36 31 33 33 30 27 24 23 22 23 24 21 18 16 12 10 10 12 11 13 16 20 25 29
62 61 61 66 71 71 71 67 65 62 58 55 53 53 58 59 57 53 47 40 39 36 34 31 27 25 24 25 26 25 20 18 16 16 16 15 12 13 14 17 21 25 30
73 68 65 65 68 71 70 69 64 64 62 59 55 54 56 55 50 48 43 42 38 35 35 31 26 26 26 26 26 24 20 21 21 21 21 19 16 17 17 17 23 25 28
75 69 70 71 71 71 69 68 66 65 64 60 56 55 55 51 47 43 44 43 37 29 27 27 26 26 26 25 21 20 21 23 23 22 21 19 21 21 20 20 23 25 28
79 77 77 76 72 72 73 73 68 67 67 61 58 54 55 55 49 44 42 43 39 29 21 19 20 23 26 26 24 23 24 26 25 23 21 21 24 26 23 21 21 25 26
82 84 84 85 83 82 83 81 69 64 64 62 57 50 51 48 44 41 39 39 36 29 25 22 22 24 25 28 28 27 23 22 23 23 21 20 21 27 27 24 20 20 22
77 83 86 87 90 87 86 82 71 66 65 62 55 50 47 45 43 42 37 34 34 32 30 28 28 28 28 29 28 26 24 22 21 21 21 22 25 25 27 25 21 20 25
87 85 84 88 93 89 90 80 75 66 66 62 56 50 48 46 43 42 39 36 35 33 34 33 32 31 26 26 27 25 24 23 24 24 25 27 28 28 27 26 25 25 27
Wind_Direction_850mb
203 203 203 201 202 207 207 209 212 213 209 204 203 210 203 202 198 206 195 178 172 138 101 82 64 61 53 48 33 20 8 358 357 352 355 359 359 6 360 349 351 349 4
204 202 201 203 201 204 205 211 212 210 210 206 208 206 199 196 194 192 182 167 159 140 115 88 70 64 57 53 48 36 23 17 9 5 3 8 12 13 8 359 349 346 358
204 201 198 198 198 200 201 210 210 208 205 206 204 202 196 192 187 183 176 161 159 140 117 93 73 59 44 44 45 40 32 23 15 12 13 10 11 13 24 14 0 344 349
200 200 200 198 200 198 203 213 210 209 201 201 201 198 193 187 180 177 172 162 158 141 113 95 82 58 40 36 33 32 35 22 15 13 14 14 14 16 12 11 20 4 352
200 200 199 199 198 193 207 211 208 204 198 199 200 190 188 185 180 176 173 169 156 143 114 94 84 58 34 34 29 28 22 15 14 14 16 13 12 12 13 8 12 13 6
199 199 198 199 198 200 200 207 205 200 201 203 200 194 191 186 179 178 177 173 155 132 114 95 62 55 36 31 16 11 11 12 12 13 10 12 6 11 11 6 2 5 8
200 200 199 198 196 192 197 202 204 207 205 200 195 192 189 185 181 182 180 169 159 141 125 102 63 43 40 18 11 10 6 3 5 5 1 3 358 358 359 5 7 5 3
201 202 200 196 198 198 190 202 206 209 206 195 192 190 187 182 183 186 189 177 176 148 118 99 71 36 22 14 4 8 3 7 12 346 346 354 356 349 355 358 357 6 1
199 200 197 199 202 195 199 202 202 204 195 193 191 185 182 183 188 194 194 186 187 174 149 134 74 41 15 6 350 357 353 343 345 327 338 347 358 355 350 346 357 2 10
201 200 205 209 201 201 202 199 200 200 193 194 191 188 184 188 188 190 193 195 196 192 193 190 250 337 358 345 331 345 338 332 332 334 337 345 359 2 356 352 0 8 10
201 204 206 211 207 205 202 199 198 190 192 195 199 192 192 194 196 197 201 203 210 211 213 237 288 318 334 327 333 350 351 345 333 336 335 347 358 7 8 6 1 6 11
205 203 203 207 209 207 200 193 191 192 193 195 196 195 197 204 204 204 206 209 223 218 229 247 268 285 291 305 -0 22 14 352 343 340 343 353 4 358 11 7 8 1 14
197 197 199 197 199 197 192 192 190 193 198 197 201 203 207 206 200 200 208 218 227 223 229 243 253 252 248 308 324 4 350 350 348 347 357 353 3 345 346 5 6 4 5
200 194 193 193 190 190 192 196 197 197 201 208 211 214 213 214 211 211 211 214 217 218 225 225 232 238 244 256 294 330 325 334 342 340 350 345 332 327 349 9 4 343 332
195 192 193 195 193 191 198 202 205 212 217 218 223 227 222 216 214 211 214 209 203 206 213 220 226 233 245 270 285 294 309 326 331 333 339 341 324 339 355 6 4 352 348
197 196 194 196 198 201 201 204 215 224 224 229 242 241 227 218 212 208 200 194 201 215 222 224 229 238 246 255 266 283 301 314 320 325 329 332 325 344 357 357 5 5 0
210 202 201 203 202 205 207 210 208 203 220 231 232 223 210 208 207 212 206 209 218 227 226 229 233 241 247 257 275 288 293 303 313 315 318 324 313 332 352 356 356 0 8
214 212 210 206 208 210 211 210 210 209 203 203 207 213 206 209 218 217 218 223 228 229 228 233 236 243 250 261 269 277 288 295 293 294 301 321 306 324 337 353 353 352 358
217 213 213 211 212 213 211 212 214 213 215 213 205 203 214 220 225 226 230 235 240 230 230 233 238 245 252 256 261 272 282 272 278 285 293 306 301 298 319 334 342 348 354
221 221 217 213 215 213 212 214 214 214 218 218 214 212 209 211 215 221 231 234 229 227 234 236 241 246 252 255 262 271 272 270 273 279 285 286 279 281 307 322 330 342 349
217 218 217 215 217 217 215 215 216 218 219 221 222 221 226 228 226 231 234 233 231 232 237 240 247 252 256 261 266 268 269 270 270 270 274 277 274 263 280 308 322 328 337
221 221 218 218 218 218 218 219 219 220 222 223 224 223 226 228 228 230 231 228 232 232 236 242 248 252 259 262 255 258 266 265 268 268 264 263 267 266 277 297 310 316 325
222 224 221 220 222 223 221 220 220 221 222 223 225 227 226 224 225 223 221 221 221 223 229 240 252 264 265 263 265 272 272 271 267 261 261 268 268 261 268 283 297 308 316
218 223 223 222 222 222 220 218 220 223 223 223 226 226 223 219 215 212 215 218 223 227 238 251 262 273 269 263 263 263 260 258 260 260 264 264 259 254 264 279 290 303 314
227 222 225 227 226 225 222 219 222 220 220 223 225 221 218 214 213 216 217 220 224 234 243 253 263 269 264 258 256 257 255 248 251 257 262 258 257 255 261 268 275 288 303
227 228 229 226 224 224 223 218 222 220 220 220 221 219 218 215 219 224 225 227 230 238 241 250 263 268 257 253 253 254 253 255 257 262 264 263 256 253 255 264 278 288 296